Dutch Harbor, AK

6:09 AM AKDT on September 19, 2017 (GMT -0800)
Unalaska

Weather History for PADU - November, 2013

Change the Weather History Date:

Monday, November 25, 2013

  Actual Average Record
Temperature  
Mean Temperature 34 °F -  
Max Temperature 36 °F 39 °F 49 °F (1990)
Min Temperature 33 °F 28 °F 14 °F (1988)
Degree Days  
Heating Degree Days 30    
Moisture  
Dew Point 24 °F    
Average Humidity 65    
Maximum Humidity 82    
Minimum Humidity 50    
Precipitation  
Precipitation 0.00 in - - ()
Sea Level Pressure  
Sea Level Pressure 29.79 in    
Wind  
Wind Speed 15 mph (WNW)    
Max Wind Speed 23 mph    
Max Gust Speed 26 mph    
Visibility 10 miles    
Events Rain , Snow    
Averages and records for this station are not official NWS values.
T = Trace of Precipitation, MM = Missing Value Source: NWS Daily Summary

Daily Weather History Graph

Daily Weather History Graph

Search for Another Location

Airport or City:

Trip Planner

Search our weather history database for the weather conditions in past years. The results will help you decide how hot, cold, wet, or windy it might be!

Date:

Astronomy

Nov. 25, 2013 Rise Set
Actual Time 9:52 AM AKST 5:53 PM AKST
Civil Twilight 9:11 AM AKST 6:35 PM AKST
Nautical Twilight 8:26 AM AKST 7:19 PM AKST
Astronomical Twilight 7:44 AM AKST 8:01 PM AKST
Moon 1:05 AM AKST (11/25) 2:37 PM AKST (11/25)
Length of Visible Light 9h 23m
Length of Day
8h 01m
Waning Gibbous, 49% of the Moon is Illuminated
Nov 25
Waning Gibbous
Dec 2
New
Dec 9
First Quarter
Dec 17
Full
Dec 25
Last Quarter

Hourly Weather History & Observations

Time (AKST) Temp. Windchill Dew Point Humidity Pressure Visibility Wind Dir Wind Speed Gust Speed Precip Events Conditions
12:17 AM 35.6 °F 24.8 °F 26.6 °F 70% 29.64 in 10.0 mi NNW 19.6 mph - N/A Rain Light Rain
12:56 AM 36.0 °F 26.0 °F 24.1 °F 62% 29.66 in 10.0 mi NW 17.3 mph - N/A   Overcast
1:56 AM 36.0 °F 26.3 °F 23.0 °F 59% 29.67 in 10.0 mi NW 16.1 mph - N/A   Overcast
2:56 AM 35.1 °F 25.2 °F 26.1 °F 70% 29.67 in 10.0 mi NW 16.1 mph 26.5 mph N/A Rain Light Rain
3:56 AM 36.0 °F 26.0 °F 24.1 °F 62% 29.68 in 10.0 mi WNW 17.3 mph 23.0 mph N/A   Overcast
4:56 AM 35.1 °F 23.3 °F 27.0 °F 72% 29.69 in 10.0 mi NW 23.0 mph - N/A Rain Light Rain
5:56 AM 36.0 °F 26.0 °F 23.0 °F 59% 29.70 in 10.0 mi WNW 17.3 mph - N/A Rain Light Rain
6:13 AM 35.6 °F 26.2 °F 23.0 °F 60% 29.69 in 10.0 mi WNW 15.0 mph - N/A Snow Light Snow
6:56 AM 36.0 °F 26.7 °F 21.0 °F 55% 29.72 in 9.0 mi NW 15.0 mph 21.9 mph N/A Snow Light Snow
7:56 AM 36.0 °F 27.1 °F 19.0 °F 50% 29.73 in 10.0 mi NW 13.8 mph - N/A   Overcast
8:56 AM 36.0 °F 27.1 °F 21.9 °F 57% 29.75 in 10.0 mi West 13.8 mph - N/A   Overcast
9:13 AM 35.6 °F 27.1 °F 21.2 °F 56% 29.73 in 10.0 mi WNW 12.7 mph - N/A   Mostly Cloudy
9:44 AM 35.6 °F 26.6 °F 24.8 °F 65% 29.75 in 10.0 mi WNW 13.8 mph - N/A Snow Light Snow
9:56 AM 34.0 °F 23.0 °F 27.0 °F 75% 29.77 in 9.0 mi NW 18.4 mph - N/A Snow Light Snow
10:14 AM 33.8 °F 25.3 °F 26.6 °F 75% 29.76 in 10.0 mi NW 11.5 mph - N/A Snow Light Snow
10:56 AM 35.1 °F 27.4 °F 24.1 °F 64% 29.79 in 10.0 mi NW 10.4 mph - N/A   Mostly Cloudy
10:59 AM 35.6 °F 28.0 °F 24.8 °F 65% 29.77 in 10.0 mi NW 10.4 mph - N/A   Mostly Cloudy
11:23 AM 35.6 °F 26.6 °F 24.8 °F 65% 29.78 in 10.0 mi West 13.8 mph - N/A   Mostly Cloudy
11:30 AM 35.6 °F 25.5 °F 24.8 °F 65% 29.79 in 8.0 mi West 17.3 mph 21.9 mph N/A Snow Light Snow
11:56 AM 33.1 °F 25.5 °F 27.0 °F 78% 29.81 in 8.0 mi WNW 9.2 mph - N/A Snow Light Snow
11:59 AM 33.8 °F 26.4 °F 26.6 °F 75% 29.79 in 10.0 mi WNW 9.2 mph - N/A   Mostly Cloudy
12:56 PM 34.0 °F 31.0 °F 26.1 °F 73% 29.82 in 10.0 mi NNW 3.5 mph - N/A Snow Light Snow
1:56 PM 34.0 °F 26.6 °F 27.0 °F 75% 29.83 in 10.0 mi West 9.2 mph - N/A Snow Light Snow
2:56 PM 36.0 °F 27.1 °F 25.0 °F 64% 29.83 in 10.0 mi West 13.8 mph 19.6 mph N/A   Mostly Cloudy
3:56 PM 36.0 °F 27.5 °F 23.0 °F 59% 29.85 in 9.0 mi WNW 12.7 mph - N/A Snow Light Snow
4:56 PM 36.0 °F 27.5 °F 25.0 °F 64% 29.86 in 10.0 mi West 12.7 mph - N/A   Mostly Cloudy
5:56 PM 35.1 °F 27.4 °F 24.1 °F 64% 29.88 in 10.0 mi WSW 10.4 mph - N/A   Mostly Cloudy
6:56 PM 33.1 °F 28.7 °F 28.0 °F 82% 29.91 in 9.0 mi West 4.6 mph - N/A   Overcast
7:56 PM 36.0 °F 28.0 °F 24.1 °F 62% 29.93 in 10.0 mi West 11.5 mph 24.2 mph N/A   Mostly Cloudy
8:56 PM 36.0 °F 28.5 °F 25.0 °F 64% 29.95 in 10.0 mi West 10.4 mph - N/A   Scattered Clouds
9:56 PM 35.1 °F 27.9 °F 25.0 °F 67% 29.97 in 10.0 mi West 9.2 mph - N/A   Partly Cloudy
10:56 PM 35.1 °F 27.4 °F 23.0 °F 61% 29.99 in 10.0 mi West 10.4 mph - N/A   Partly Cloudy
11:56 PM 35.1 °F 27.4 °F 21.9 °F 59% 30.02 in 10.0 mi WSW 10.4 mph - N/A   Partly Cloudy